When you browse on this site, cookies collect data to enhance your experience and personalize the content and advertising you see.
Visit our Privacy Policy to learn more. By continuing to use the site, you agree to this use of cookies and data.
  • En España
  • Lista de países
  • Para 7 días
  • Temperatura del agua
  • Mapa Satelital
  • El tiempo en el mapa
  • Informadores
  • user-avatar
    Iniciar sesión

    Tiempo cada hora Rawson

    Hoy, 24 Julio, Miércoles

    Tiempo Temperatura Precipitaciones Viento Presión Humedad
    00:00 +6°C° 0 mm 2 mps 768 mmHg 58%
    01:00 +5°C° 0 mm 3 mps 768 mmHg 58%
    02:00 +5°C° 0 mm 3 mps 768 mmHg 58%
    03:00 +4°C° 0 mm 3 mps 768 mmHg 59%
    04:00 +4°C° 0 mm 3 mps 768 mmHg 61%
    05:00 +4°C° 0 mm 3 mps 767 mmHg 62%
    06:00 +4°C° 0 mm 3 mps 767 mmHg 61%
    07:00 +4°C° 0 mm 3 mps 767 mmHg 61%
    08:00 +3°C° 0 mm 3 mps 767 mmHg 60%
    09:00 +5°C° 0 mm 4 mps 767 mmHg 55%
    10:00 +7°C° 0 mm 5 mps 767 mmHg 51%
    11:00 +8°C° 0 mm 6 mps 767 mmHg 46%
    12:00 +9°C° 0 mm 5 mps 766 mmHg 42%
    13:00 +11°C° 0 mm 4 mps 766 mmHg 38%
    14:00 +12°C° 0 mm 3 mps 765 mmHg 34%
    15:00 +11°C° 0 mm 3 mps 765 mmHg 37%
    16:00 +10°C° 0 mm 2 mps 764 mmHg 41%
    17:00 +9°C° 0 mm 2 mps 764 mmHg 45%
    18:00 +9°C° 0 mm 2 mps 764 mmHg 45%
    19:00 +9°C° 0 mm 2 mps 764 mmHg 44%
    20:00 +8°C° 0 mm 2 mps 764 mmHg 44%
    21:00 +8°C° 0 mm 2 mps 764 mmHg 44%
    22:00 +8°C° 0 mm 2 mps 763 mmHg 43%
    23:00 +8°C° 0 mm 2 mps 763 mmHg 43%

    Mañana, 25 Julio, Jueves

    Tiempo Temperatura Precipitaciones Viento Presión Humedad
    00:00 +8°C° 0 mm 3 mps 762 mmHg 43%
    01:00 +7°C° 0 mm 4 mps 762 mmHg 43%
    02:00 +7°C° 0 mm 5 mps 761 mmHg 43%
    03:00 +7°C° 0 mm 6 mps 761 mmHg 44%
    04:00 +6°C° 0 mm 7 mps 760 mmHg 44%
    05:00 +5°C° 0 mm 8 mps 760 mmHg 45%
    06:00 +6°C° 0 mm 8 mps 760 mmHg 46%
    07:00 +6°C° 0 mm 9 mps 760 mmHg 46%
    08:00 +6°C° 0 mm 9 mps 759 mmHg 47%
    09:00 +8°C° 0 mm 10 mps 759 mmHg 44%
    10:00 +11°C° 0 mm 11 mps 759 mmHg 42%
    11:00 +12°C° 0 mm 12 mps 759 mmHg 39%
    12:00 +14°C° 0 mm 11 mps 759 mmHg 35%
    13:00 +16°C° 0 mm 10 mps 759 mmHg 31%
    14:00 +18°C° 0 mm 9 mps 758 mmHg 27%
    15:00 +16°C° 0 mm 8 mps 758 mmHg 30%
    16:00 +15°C° 0 mm 6 mps 758 mmHg 33%
    17:00 +13°C° 0 mm 5 mps 758 mmHg 36%
    18:00 +13°C° 0 mm 4 mps 759 mmHg 37%
    19:00 +12°C° 0 mm 3 mps 759 mmHg 39%
    20:00 +12°C° 0 mm 3 mps 759 mmHg 40%
    21:00 +11°C° 0 mm 3 mps 759 mmHg 41%
    22:00 +11°C° 0 mm 3 mps 759 mmHg 42%
    23:00 +10°C° 0 mm 4 mps 759 mmHg 43%

    Pasado mañana, 26 Julio, Viernes

    Tiempo Temperatura Precipitaciones Viento Presión Humedad
    00:00 +10°C° 0 mm 4 mps 760 mmHg 43%
    01:00 +9°C° 0 mm 5 mps 760 mmHg 43%
    02:00 +9°C° 0 mm 5 mps 760 mmHg 43%
    03:00 +8°C° 0 mm 6 mps 761 mmHg 45%
    04:00 +8°C° 0 mm 6 mps 761 mmHg 48%
    05:00 +6°C° 0 mm 7 mps 762 mmHg 50%
    06:00 +6°C° 0 mm 7 mps 762 mmHg 53%
    07:00 +6°C° 0 mm 8 mps 763 mmHg 55%
    08:00 +6°C° 0 mm 8 mps 763 mmHg 58%
    09:00 +7°C° 0 mm 9 mps 764 mmHg 53%
    10:00 +8°C° 0 mm 9 mps 764 mmHg 48%
    11:00 +10°C° 0 mm 9 mps 765 mmHg 43%
    12:00 +11°C° 0 mm 9 mps 765 mmHg 41%
    13:00 +11°C° 0 mm 8 mps 764 mmHg 39%
    14:00 +12°C° 0 mm 7 mps 764 mmHg 37%
    15:00 +11°C° 0 mm 6 mps 764 mmHg 40%
    16:00 +10°C° 0 mm 5 mps 765 mmHg 44%
    17:00 +11°C° 0 mm 4 mps 765 mmHg 47%
    18:00 +10°C° 0 mm 4 mps 765 mmHg 50%
    19:00 +9°C° 0 mm 3 mps 765 mmHg 52%
    20:00 +8°C° 0 mm 3 mps 766 mmHg 55%
    21:00 +8°C° 0 mm 3 mps 766 mmHg 54%
    22:00 +8°C° 0 mm 3 mps 766 mmHg 54%
    23:00 +8°C° 0 mm 3 mps 766 mmHg 54%

    27 Julio, Sábado

    Tiempo Temperatura Precipitaciones Viento Presión Humedad
    00:00 +6°C° 0 mm 4 mps 766 mmHg 54%
    01:00 +6°C° 0 mm 4 mps 766 mmHg 55%
    02:00 +6°C° 0 mm 5 mps 766 mmHg 55%
    03:00 +6°C° 0 mm 5 mps 766 mmHg 55%
    04:00 +6°C° 0 mm 5 mps 765 mmHg 56%
    05:00 +5°C° 0 mm 5 mps 765 mmHg 56%
    06:00 +5°C° 0 mm 5 mps 765 mmHg 57%
    07:00 +3°C° 0 mm 5 mps 765 mmHg 59%
    08:00 +3°C° 0 mm 5 mps 764 mmHg 61%
    09:00 +6°C° 0 mm 5 mps 764 mmHg 54%
    10:00 +8°C° 0 mm 6 mps 764 mmHg 47%
    11:00 +9°C° 0 mm 6 mps 764 mmHg 41%
    12:00 +11°C° 0 mm 6 mps 764 mmHg 38%
    13:00 +12°C° 0 mm 7 mps 763 mmHg 36%
    14:00 +14°C° 0 mm 7 mps 762 mmHg 34%
    15:00 +12°C° 0 mm 7 mps 762 mmHg 36%
    16:00 +13°C° 0 mm 6 mps 762 mmHg 38%
    17:00 +11°C° 0 mm 6 mps 762 mmHg 41%
    18:00 +11°C° 0 mm 7 mps 762 mmHg 43%
    19:00 +10°C° 0 mm 8 mps 762 mmHg 46%
    20:00 +9°C° 0 mm 8 mps 762 mmHg 49%
    21:00 +8°C° 0 mm 9 mps 762 mmHg 50%
    22:00 +8°C° 0 mm 9 mps 762 mmHg 51%
    23:00 +8°C° 0 mm 9 mps 761 mmHg 52%

    28 Julio, Domingo

    Tiempo Temperatura Precipitaciones Viento Presión Humedad
    00:00 +7°C° 0 mm 9 mps 761 mmHg 53%
    01:00 +7°C° 0 mm 8 mps 761 mmHg 55%
    02:00 +7°C° 0 mm 8 mps 761 mmHg 57%
    03:00 +7°C° 0 mm 8 mps 761 mmHg 57%
    04:00 +6°C° 0 mm 7 mps 760 mmHg 58%
    05:00 +6°C° 0 mm 7 mps 760 mmHg 58%
    06:00 +6°C° 0 mm 7 mps 760 mmHg 58%
    07:00 +6°C° 0 mm 7 mps 759 mmHg 59%
    08:00 +7°C° 0 mm 8 mps 759 mmHg 60%
    09:00 +9°C° 0 mm 8 mps 759 mmHg 57%
    10:00 +10°C° 0 mm 9 mps 759 mmHg 54%
    11:00 +11°C° 0 mm 10 mps 759 mmHg 52%
    12:00 +12°C° 0 mm 9 mps 758 mmHg 48%
    13:00 +13°C° 0 mm 9 mps 757 mmHg 45%
    14:00 +15°C° 0 mm 8 mps 757 mmHg 42%
    15:00 +15°C° 0 mm 8 mps 757 mmHg 43%
    16:00 +14°C° 0 mm 7 mps 756 mmHg 45%
    17:00 +13°C° 0 mm 6 mps 756 mmHg 47%
    18:00 +12°C° 0 mm 5 mps 756 mmHg 49%
    19:00 +11°C° 0 mm 4 mps 756 mmHg 51%
    20:00 +10°C° 0 mm 4 mps 757 mmHg 54%
    21:00 +10°C° 0 mm 4 mps 756 mmHg 54%
    22:00 +8°C° 0 mm 4 mps 756 mmHg 54%
    23:00 +8°C° 0 mm 4 mps 756 mmHg 54%

    29 Julio, Lunes

    Tiempo Temperatura Precipitaciones Viento Presión Humedad
    00:00 +7°C° 0 mm 5 mps 756 mmHg 53%
    01:00 +7°C° 0 mm 5 mps 756 mmHg 52%
    02:00 +7°C° 0 mm 5 mps 757 mmHg 52%
    03:00 +7°C° 0 mm 5 mps 757 mmHg 52%
    04:00 +6°C° 0 mm 4 mps 757 mmHg 52%
    05:00 +6°C° 0 mm 4 mps 757 mmHg 52%
    06:00 +6°C° 0 mm 4 mps 756 mmHg 52%
    07:00 +6°C° 0 mm 4 mps 756 mmHg 51%
    08:00 +7°C° 0 mm 4 mps 756 mmHg 50%
    09:00 +8°C° 0 mm 4 mps 756 mmHg 49%
    10:00 +10°C° 0 mm 5 mps 756 mmHg 48%
    11:00 +12°C° 0 mm 5 mps 755 mmHg 47%
    12:00 +14°C° 0 mm 6 mps 755 mmHg 45%
    13:00 +15°C° 0 mm 8 mps 754 mmHg 44%
    14:00 +16°C° 0 mm 9 mps 753 mmHg 42%
    15:00 +16°C° 0 mm 9 mps 753 mmHg 43%
    16:00 +16°C° 0 mm 9 mps 752 mmHg 43%
    17:00 +16°C° 0 mm 10 mps 752 mmHg 44%
    18:00 +13°C° 0 mm 8 mps 752 mmHg 48%
    19:00 +12°C° 0 mm 7 mps 752 mmHg 51%
    20:00 +11°C° 0 mm 6 mps 752 mmHg 55%
    21:00 +11°C° 0 mm 6 mps 752 mmHg 55%
    22:00 +11°C° 0 mm 6 mps 751 mmHg 56%
    23:00 +10°C° 0 mm 6 mps 751 mmHg 57%
    Mostrar más